Theta_e
314 318 318 308 296 294 291 292 298 297 298 304 305 303 302 303 301 299 316 311 313 319 327 336 346 353 353 354 354 353 353 354 355 355 354 355 355 354 355 354 352 353 354 354 352 353 352 350 348
315 315 310 303 290 287 289 295 294 298 302 303 305 305 303 301 308 310 309 310 311 315 321 334 341 350 352 353 353 353 352 353 355 355 354 354 354 354 354 354 352 353 354 355 353 353 352 350 348
317 312 301 295 290 286 289 295 295 298 302 302 301 305 304 303 307 305 306 308 310 311 315 324 341 347 351 351 352 352 352 353 354 355 354 355 355 354 353 353 352 353 353 355 355 353 352 349 348
312 307 302 291 288 291 292 295 294 295 298 300 301 298 305 307 304 303 306 307 308 309 311 318 332 342 348 349 351 352 352 352 353 355 355 355 354 353 352 352 351 351 352 354 354 352 350 349 348
311 302 289 287 288 292 295 295 295 293 295 296 298 296 299 302 304 304 305 306 305 307 309 312 326 333 342 346 348 350 351 351 352 353 355 354 353 352 352 351 350 351 351 351 352 351 349 348 346
298 299 286 284 288 292 295 296 295 294 295 296 295 295 298 304 302 303 304 304 305 306 307 310 314 318 327 332 343 346 348 349 350 352 353 353 352 351 351 351 350 350 350 349 350 349 347 346 344
292 291 286 287 288 290 292 295 293 293 294 294 296 293 298 300 303 302 302 302 303 305 305 308 309 311 315 320 325 338 343 346 347 349 350 349 349 349 349 348 349 350 350 349 349 346 345 345 343
295 292 286 287 285 286 292 292 293 291 292 296 297 293 294 300 300 299 299 298 300 301 302 304 307 309 311 314 319 329 335 339 340 342 341 340 342 343 342 339 343 348 348 347 346 344 344 344 343
299 287 283 285 285 287 289 286 291 291 288 291 293 294 296 296 296 295 294 296 297 297 299 301 303 306 308 311 316 322 330 332 334 336 333 334 352 350 346 340 339 344 344 345 344 343 341 340 337
290 285 285 288 289 287 288 286 286 284 285 286 287 290 292 292 292 291 292 292 294 295 297 299 300 302 305 306 312 318 330 342 345 345 346 348 349 351 348 339 332 338 338 342 342 341 336 334 342
286 284 287 286 286 286 284 283 286 283 281 285 285 288 290 291 291 291 292 293 293 295 296 297 299 301 302 305 309 314 320 340 341 343 345 347 346 348 348 348 343 347 332 346 341 338 339 341 340
280 283 284 284 285 283 282 284 283 284 284 288 288 289 289 289 290 290 291 292 293 294 295 297 298 299 300 303 306 309 316 326 336 343 340 343 343 345 346 345 346 346 345 343 339 337 337 337 340
281 282 283 284 283 283 284 282 282 283 287 289 289 289 288 289 290 291 292 293 294 294 295 296 298 298 298 300 305 308 312 319 335 341 345 341 342 342 344 344 345 344 344 340 337 334 332 333 335
282 282 282 283 283 284 281 282 283 284 288 287 288 288 288 289 290 291 292 292 293 294 295 297 297 298 299 299 303 307 311 316 327 336 341 344 342 341 340 340 340 342 341 339 332 329 328 330 328
282 278 281 282 283 281 283 279 280 286 287 286 286 287 288 289 290 290 292 292 293 294 295 296 297 298 298 298 301 306 311 316 320 332 336 341 339 337 338 338 337 339 338 333 329 327 324 321 319
279 279 274 281 282 282 280 274 282 286 285 284 285 286 287 288 289 291 292 293 294 294 294 296 296 298 299 299 301 304 308 313 319 328 335 336 341 336 334 336 335 334 331 328 323 322 318 318 317
278 272 274 276 282 280 279 276 282 285 284 283 284 285 286 287 289 291 292 293 294 295 295 295 296 297 299 300 303 304 308 311 317 322 332 334 337 339 333 334 332 326 322 322 319 318 318 317 316
272 272 274 273 278 279 277 277 281 283 283 283 284 285 286 286 287 290 290 291 293 294 295 295 296 296 297 300 301 303 304 308 314 318 327 333 334 335 333 331 325 321 317 316 316 314 314 313 310
276 274 273 276 279 277 276 276 279 282 282 282 283 284 284 285 287 288 288 289 290 292 293 294 294 295 297 298 298 300 302 306 312 317 324 330 331 331 331 325 318 318 314 311 311 307 303 299 300
275 273 273 276 278 277 276 275 279 280 281 282 283 283 283 283 284 285 286 287 288 288 289 291 293 294 295 297 298 300 300 303 309 317 325 328 329 329 328 318 314 313 312 308 305 303 299 298 300
274 273 273 273 277 278 276 274 276 280 282 281 281 281 282 282 282 283 284 285 286 286 287 289 291 293 294 295 297 299 301 302 304 318 323 326 327 327 321 316 314 311 308 304 304 305 304 298 299
270 277 275 274 272 268 276 265 273 277 277 279 280 281 281 281 282 282 282 282 283 285 286 288 289 291 293 295 295 295 296 298 305 312 322 322 326 325 319 317 314 312 307 305 304 305 305 302 297
273 277 275 274 271 270 271 267 272 276 275 277 278 279 280 281 280 280 281 281 283 284 285 287 289 291 292 293 294 295 295 298 305 312 319 320 322 322 317 316 313 308 307 304 303 303 302 303 300
278 274 274 268 269 264 268 268 270 274 273 275 278 278 279 279 279 280 281 282 282 284 285 285 287 289 291 293 294 295 296 299 301 309 314 318 319 318 314 312 310 308 306 303 303 303 302 302 301
271 271 265 264 264 264 270 268 271 276 275 274 275 277 278 278 278 278 279 279 280 281 283 284 285 287 290 292 294 295 296 298 304 309 314 316 316 314 312 310 309 308 306 305 304 303 301 302 301
271 270 265 259 261 264 270 265 271 275 277 278 278 277 277 277 277 277 278 278 279 279 280 282 283 285 288 291 294 296 297 299 307 311 315 316 315 313 312 311 310 308 306 304 304 302 301 302 301
269 267 272 267 264 262 268 270 275 277 276 276 276 275 275 275 275 276 277 277 277 278 279 281 282 284 287 288 294 297 298 300 309 314 317 315 314 311 310 309 307 306 305 304 302 301 298 299 298
273 274 267 268 260 260 265 267 268 272 271 274 272 273 274 274 274 275 275 276 277 277 278 280 281 282 286 289 291 296 301 303 311 315 314 311 311 309 308 307 305 303 302 302 301 300 297 297 296
270 269 270 270 268 263 261 264 275 272 271 271 272 273 272 272 273 273 274 275 276 276 277 277 278 279 283 287 291 296 302 307 312 313 311 310 307 306 306 304 300 295 294 298 299 298 297 296 296
271 269 270 265 264 267 265 264 272 272 272 273 272 272 273 273 273 273 273 274 273 274 275 276 276 278 281 285 289 297 305 309 309 309 307 307 306 305 303 302 300 299 298 299 298 297 297 296 295
Wind_Speed
7 4 2 5 6 7 17 14 16 10 8 9 5 9 10 10 7 3 9 20 21 17 16 15 9 16 17 17 18 19 20 21 22 23 22 22 22 22 21 21 20 19 21 20 20 19 19 17 16
6 2 3 2 8 14 22 23 17 16 12 0 9 10 11 14 8 3 8 22 19 17 18 16 13 14 16 18 17 19 21 22 21 22 23 23 22 23 23 21 21 20 20 21 22 20 20 19 16
2 3 4 5 10 22 23 18 14 15 17 9 6 6 6 4 2 6 12 17 17 18 19 19 16 15 17 18 18 19 20 21 22 22 23 23 23 24 24 22 22 22 21 22 22 21 20 20 18
2 3 3 10 24 32 24 12 2 5 7 9 12 13 11 6 3 9 15 17 17 19 20 21 21 19 19 18 20 20 20 21 22 23 24 25 25 25 25 23 23 22 21 21 23 22 20 20 19
3 3 11 14 31 33 20 9 9 12 8 8 7 14 12 5 4 12 19 20 22 19 18 20 20 22 22 21 21 22 22 23 23 23 24 25 25 25 25 25 24 22 22 20 22 23 20 19 19
5 4 11 20 29 30 18 11 14 12 16 15 12 18 22 4 13 17 19 20 20 20 19 18 19 23 23 26 21 23 23 23 22 23 24 26 25 26 26 25 25 24 23 22 20 23 22 19 19
7 9 21 27 30 29 19 3 13 9 11 12 9 12 9 6 14 19 22 22 22 19 18 16 17 19 20 20 26 19 23 24 22 21 22 25 24 25 25 26 27 25 23 22 20 21 21 21 20
5 6 19 22 21 31 11 6 4 7 11 10 5 11 15 12 25 27 24 23 21 20 19 17 16 17 17 17 20 20 18 20 20 17 16 19 22 25 26 24 26 26 24 22 21 22 21 21 20
3 8 16 24 21 23 6 6 4 4 14 16 16 20 21 26 24 24 26 24 19 17 19 17 17 17 16 17 15 20 16 16 17 17 15 14 16 19 23 22 23 25 23 22 22 22 22 18 16
10 10 15 10 9 12 16 14 15 14 20 24 24 23 20 20 22 21 20 22 23 23 24 17 17 17 16 13 15 14 18 12 15 17 19 15 19 17 18 19 20 22 20 22 22 22 17 18 13
5 13 10 11 12 16 19 20 16 14 23 22 24 24 23 21 19 21 20 20 21 21 19 22 19 18 17 14 11 8 8 9 10 17 17 16 14 12 12 10 10 14 15 12 13 13 11 17 14
8 10 13 15 12 12 17 19 20 18 30 24 26 27 26 22 20 20 20 21 21 21 22 21 21 18 17 12 11 11 9 11 10 13 18 14 11 13 11 10 13 14 11 14 12 10 12 14 15
14 13 10 14 16 19 20 23 21 26 30 26 22 22 22 18 19 20 22 21 21 22 21 20 19 19 16 16 11 11 11 9 12 13 15 14 14 13 12 12 12 12 12 13 12 11 11 12 14
2 11 19 16 20 20 19 23 15 27 27 25 24 24 22 24 25 21 21 21 21 21 20 18 19 19 17 15 17 12 10 11 12 12 14 17 13 13 13 13 13 13 13 12 11 13 12 11 10
8 13 18 22 20 14 10 17 21 27 27 26 23 24 25 27 25 25 23 22 21 20 21 20 19 19 20 19 17 13 10 10 10 12 17 16 16 15 15 13 13 13 13 14 12 12 11 9 7
8 9 15 18 14 9 5 20 28 29 23 26 28 26 27 28 27 24 22 22 21 21 21 21 17 18 20 19 15 13 11 10 10 12 13 15 16 16 14 14 12 11 10 12 13 13 12 11 11
9 14 21 24 15 10 11 21 26 30 27 29 29 28 26 25 25 20 19 19 20 21 21 21 21 20 19 19 14 15 16 13 10 10 12 16 17 16 12 12 12 12 10 11 11 12 13 13 11
19 19 19 23 21 14 26 30 32 33 28 28 28 27 23 21 21 14 15 16 17 17 19 20 18 20 19 14 13 11 12 14 12 10 12 18 13 16 15 10 12 13 11 9 10 13 9 9 12
21 23 25 24 24 22 25 28 32 30 25 27 24 24 17 14 14 13 13 15 16 17 17 17 19 21 15 12 12 12 13 12 12 11 16 18 15 15 15 9 10 14 14 14 15 11 16 6 8
20 23 24 25 20 16 23 31 33 29 27 24 19 10 12 14 15 16 15 16 16 19 18 19 19 20 17 12 12 11 11 12 13 12 14 17 16 15 14 14 13 13 11 14 16 19 11 7 11
19 22 23 25 21 19 21 30 24 21 16 3 5 4 11 15 18 18 18 18 18 19 19 19 19 19 18 20 12 13 11 12 14 12 12 15 18 16 13 13 15 14 12 13 15 16 16 14 7
19 12 11 14 15 14 14 21 22 9 2 10 6 7 13 19 21 20 19 20 20 20 19 21 21 20 19 22 17 20 13 14 15 13 12 12 17 18 16 18 16 15 11 14 15 15 15 15 17
11 12 15 18 18 13 17 9 9 7 12 7 6 11 15 18 21 23 22 21 20 20 19 19 21 20 20 21 21 16 16 14 13 13 16 15 16 16 16 17 16 15 12 13 15 13 14 17 15
12 11 15 4 2 6 5 9 16 9 3 4 9 14 17 17 19 21 21 21 20 18 18 18 20 20 20 21 23 22 20 18 16 16 12 10 12 12 16 17 16 16 15 17 15 13 11 16 16
2 8 7 5 5 6 5 12 18 16 4 4 11 15 16 16 17 18 19 19 20 21 20 18 19 20 20 22 23 21 20 20 23 18 13 15 12 12 16 17 16 15 16 17 18 18 16 12 13
6 5 5 8 9 16 13 10 6 2 6 7 13 16 17 18 17 19 20 19 20 20 21 21 20 19 19 21 22 19 20 13 17 16 13 12 14 13 16 16 17 17 17 16 16 14 12 12 10
4 5 2 9 4 6 4 8 19 6 5 15 18 18 19 20 20 21 21 19 19 19 20 19 19 18 17 19 19 19 18 19 18 17 15 11 13 13 17 16 16 16 17 17 16 11 14 11 9
7 4 5 4 7 14 9 18 10 5 7 17 17 19 18 18 19 19 19 19 18 18 17 17 16 17 16 17 18 16 16 18 19 13 16 8 13 16 17 17 16 15 14 13 16 13 13 14 8
4 5 5 6 8 8 13 10 4 7 6 14 16 18 17 17 16 18 18 18 17 16 14 15 14 16 13 12 15 17 16 19 18 14 11 15 12 16 17 18 16 15 13 14 11 10 15 15 12
5 5 6 5 9 11 12 18 5 3 6 10 15 16 17 16 16 16 17 16 16 17 16 16 15 13 12 10 10 15 17 20 16 15 14 15 14 12 15 14 17 17 17 14 12 11 12 16 15
Wind_Direction
326 335 271 198 221 235 254 245 235 218 228 227 197 207 217 245 219 341 134 17 1 5 358 344 238 237 218 209 197 188 182 181 181 179 176 177 175 173 173 170 169 170 161 165 162 160 156 154 153
326 248 198 175 240 236 248 230 223 233 232 125 221 233 248 256 256 243 351 355 354 4 3 3 330 251 232 212 206 196 186 182 184 183 179 179 177 176 176 173 172 173 168 163 164 162 155 150 153
262 307 224 218 230 237 250 251 247 230 243 233 242 241 263 220 106 42 3 346 350 2 3 8 339 294 255 216 212 200 193 188 184 186 182 182 180 177 177 175 176 177 175 165 167 162 157 152 156
203 184 213 243 240 243 254 253 306 234 241 246 254 268 236 360 53 9 350 348 359 3 360 358 356 333 289 240 214 204 200 194 189 186 187 185 183 181 177 177 178 179 179 174 167 161 160 155 157
189 208 231 240 250 258 260 268 250 256 279 243 230 245 237 106 25 7 355 352 350 351 355 353 353 348 327 287 236 215 204 202 193 190 187 187 186 183 179 177 181 182 180 181 167 159 159 161 158
199 264 231 243 251 256 258 264 269 269 265 277 263 266 264 257 12 351 346 341 339 337 342 345 350 348 351 336 283 231 214 206 203 193 188 186 187 185 181 179 182 182 183 181 172 159 156 164 162
254 226 247 258 265 275 274 297 267 289 271 252 316 263 248 221 349 336 328 327 324 324 329 332 338 339 339 335 326 264 226 214 207 203 193 188 186 186 184 181 182 183 183 182 172 161 159 164 162
249 258 256 249 262 270 313 322 337 297 284 335 297 252 266 330 327 321 318 315 314 315 316 319 323 325 331 329 317 289 246 219 208 205 203 193 185 186 189 188 185 183 182 181 171 162 165 167 162
231 237 252 255 258 267 85 337 280 301 277 272 268 278 296 302 306 311 312 310 306 307 302 305 308 311 316 317 320 320 244 228 213 205 199 201 198 195 190 192 185 185 182 179 170 164 166 164 156
217 240 259 312 309 289 303 304 302 293 286 279 278 279 288 296 293 295 296 302 306 309 311 310 306 302 305 308 316 319 309 245 230 221 212 208 208 206 200 191 179 183 182 177 173 162 157 159 170
223 250 294 279 298 300 302 300 304 281 277 274 284 295 291 292 292 290 289 288 291 294 294 302 308 304 299 299 303 306 309 283 246 228 219 213 213 214 205 197 190 188 179 178 173 163 168 183 176
261 258 270 286 290 291 290 299 277 271 269 280 280 281 288 287 283 282 283 283 285 285 285 290 293 297 296 291 287 293 297 305 258 232 221 214 207 210 202 198 192 191 183 184 177 175 174 182 177
250 273 277 275 272 272 274 266 268 275 271 272 272 273 280 281 280 279 277 277 277 275 279 283 284 289 293 288 282 278 283 290 281 249 223 213 209 205 201 198 190 188 184 181 176 174 168 175 179
302 272 277 281 278 272 265 279 294 277 284 290 291 294 289 289 291 288 277 273 273 276 275 276 278 281 284 281 277 272 270 281 280 258 236 222 211 210 204 198 193 189 184 180 171 171 167 168 171
266 284 290 277 277 292 316 284 274 282 291 299 297 288 290 290 292 289 287 284 284 280 281 279 276 276 277 276 275 269 263 265 276 270 244 227 217 219 201 196 195 188 186 174 169 171 160 153 159
262 271 278 275 288 285 250 281 283 283 294 300 291 286 285 289 290 289 289 288 284 281 279 280 275 272 277 275 274 272 264 259 263 267 246 228 217 201 215 195 189 184 179 178 169 169 162 163 165
228 277 273 280 280 282 243 281 283 286 296 292 283 284 286 290 288 290 302 302 292 284 279 278 275 270 270 271 268 266 268 261 257 267 253 232 219 203 195 198 191 162 168 179 176 174 172 167 171
288 280 263 273 281 266 283 278 282 281 287 280 280 283 284 290 296 316 301 297 298 296 290 279 271 268 267 271 272 267 264 261 250 251 250 236 218 203 191 215 165 166 159 171 174 167 163 162 161
277 274 275 278 285 291 281 282 278 282 276 276 269 274 288 285 302 305 307 302 300 294 287 286 286 272 264 260 260 254 256 257 249 240 246 233 220 202 192 173 170 163 168 170 170 152 146 115 137
261 267 272 282 285 281 289 288 281 287 279 273 274 261 280 297 304 306 304 300 294 294 291 284 276 274 270 258 257 254 252 257 254 246 237 222 206 196 190 164 167 170 168 168 169 156 143 119 159
265 270 281 284 297 289 289 283 284 290 267 237 164 269 291 304 307 307 305 301 296 290 289 284 279 275 272 266 255 255 246 251 255 240 231 217 207 192 166 166 165 167 164 166 170 168 163 158 165
276 299 290 288 301 294 328 292 321 330 287 196 224 307 323 315 311 310 309 304 299 294 290 283 278 270 268 261 253 249 242 245 240 236 227 214 203 189 170 165 169 171 164 166 175 177 176 155 164
261 300 293 292 286 302 284 241 281 260 280 193 290 319 316 312 310 308 308 303 299 294 288 286 276 266 266 261 248 238 239 248 249 233 222 206 194 183 167 170 167 162 163 166 171 188 176 169 163
295 300 290 297 232 241 237 227 293 313 358 276 318 317 313 310 307 304 305 306 301 297 291 286 284 271 268 258 245 234 236 241 234 231 216 205 191 173 167 166 167 163 163 164 163 166 184 168 163
180 305 300 264 232 280 188 277 262 299 233 301 310 313 315 313 308 307 308 309 306 304 299 292 283 273 267 254 245 231 229 234 244 224 209 202 198 167 170 166 168 168 167 169 164 169 168 175 183
322 234 275 291 293 302 294 255 286 183 165 322 323 324 323 320 321 320 319 316 311 306 300 293 286 276 265 256 248 232 227 229 233 220 205 216 173 167 168 165 169 167 160 166 168 168 159 173 181
135 235 297 273 256 267 241 277 280 219 250 333 331 330 331 329 329 324 322 318 314 309 302 297 292 282 263 251 251 237 227 224 229 207 204 203 164 160 161 159 160 161 158 162 159 169 152 163 162
243 338 263 228 285 297 290 300 273 287 322 333 326 330 328 325 325 326 325 322 316 312 307 305 302 290 270 254 245 238 229 222 218 186 190 164 156 153 158 159 153 152 148 150 164 161 162 151 154
230 242 233 270 264 306 314 301 272 312 334 322 326 331 332 332 326 326 323 323 317 314 315 320 317 298 283 252 238 230 232 220 185 169 164 159 148 157 154 149 148 135 131 138 146 151 157 152 152
259 248 225 268 310 290 291 278 1 91 323 316 328 335 337 338 333 327 323 325 327 328 330 335 321 309 293 274 239 213 222 200 158 157 159 155 151 147 139 153 148 144 141 144 141 168 166 155 163